Weather History for KFWA - November, 2012

Change the Weather History Date:

Thursday, November 22, 2012

  Actual Average Record
Temperature  
Mean Temperature 47 °F 38 °F  
Max Temperature 62 °F 47 °F 70 °F (1931)
Min Temperature 32 °F 31 °F 10 °F (1964)
Degree Days  
Heating Degree Days 18 26  
Month to date heating degree days 517 480  
Since 1 July heating degree days 1084 989  
Cooling Degree Days 0 0  
Month to date cooling degree days 0 0  
Year to date cooling degree days 1108 809  
Moisture  
Dew Point 39 °F    
Average Humidity 75    
Maximum Humidity 100    
Minimum Humidity 49    
Precipitation  
Precipitation T in 0.11 in 2.25 in (1992)
Month to date precipitation 0.53 2.23  
Year to date precipitation 26.31 34.71  
Snow  
Snow 0.00 in 0.10 in 1.00 in (1928)
Month to date snowfall 0.4 1.0  
Since 1 July snowfall 0.5 1.3  
Since 1 September snowfall 1.3  
Snow Depth 0.00 in    
Sea Level Pressure  
Sea Level Pressure 30.09 in    
Wind  
Wind Speed 12 mph (SSW)    
Max Wind Speed 25 mph    
Max Gust Speed 31 mph    
Visibility 6 miles    
Events Fog , Rain    
T = Trace of Precipitation, MM = Missing Value Source: NWS Daily Summary

Daily Weather History Graph

Daily Weather History Graph

Search for Another Location

Airport or City:

Trip Planner

Search our weather history database for the weather conditions in past years. The results will help you decide how hot, cold, wet, or windy it might be!

Date:

Astronomy

Nov. 22, 2012 Rise Set
Actual Time 7:36 AM EST 5:16 PM EST
Civil Twilight 7:06 AM EST 5:46 PM EST
Nautical Twilight 6:33 AM EST 6:20 PM EST
Astronomical Twilight 6:00 AM EST 6:53 PM EST
Moon 2:04 PM EST (11/22) 1:53 AM EST (11/22)
Length of Visible Light 10h 39m
Length of Day
9h 39m
Waxing Gibbous, 71% of the Moon is Illuminated
Nov 22
Waxing Gibbous
Nov 28
Full
Dec 6
Last Quarter
Dec 13
New
Dec 20
First Quarter

Hourly Weather History & Observations

Time (EST) Temp. Windchill Dew Point Humidity Pressure Visibility Wind Dir Wind Speed Gust Speed Precip Events Conditions
12:54 AM 33.1 °F - 33.1 °F 100% 30.21 in 0.5 mi Calm Calm - N/A Fog Fog
1:20 AM 33.8 °F 30.8 °F 33.8 °F 100% 30.19 in 0.2 mi SSE 3.5 mph - N/A Fog Fog
1:54 AM 33.1 °F 28.7 °F 33.1 °F 100% 30.19 in 0.2 mi SSE 4.6 mph - N/A Fog Fog
2:07 AM 33.8 °F 29.6 °F 33.8 °F 100% 30.18 in 0.8 mi South 4.6 mph - N/A   Partly Cloudy
2:18 AM 33.8 °F 29.6 °F 33.8 °F 100% 30.18 in 1.0 mi South 4.6 mph - N/A   Partly Cloudy
2:54 AM 36.0 °F 32.1 °F 35.1 °F 97% 30.19 in 1.8 mi South 4.6 mph - N/A   Partly Cloudy
3:54 AM 37.0 °F 33.3 °F 37.0 °F 100% 30.18 in 2.0 mi South 4.6 mph - N/A   Clear
4:21 AM 37.4 °F 33.8 °F 37.4 °F 100% 30.16 in 3.0 mi SSW 4.6 mph - N/A   Clear
4:54 AM 36.0 °F 31.1 °F 36.0 °F 100% 30.18 in 4.0 mi SSW 5.8 mph - N/A   Clear
5:01 AM 37.4 °F 32.8 °F 35.6 °F 93% 30.16 in 42.0 mi South 5.8 mph - N/A   Clear
5:54 AM 37.0 °F 33.3 °F 36.0 °F 96% 30.18 in 4.0 mi South 4.6 mph - N/A   Clear
6:54 AM 39.0 °F 33.4 °F 37.9 °F 96% 30.17 in 5.0 mi South 8.1 mph - N/A   Scattered Clouds
7:42 AM 39.2 °F 34.2 °F 37.4 °F 93% 30.15 in 2.5 mi SSW 6.9 mph - N/A   Scattered Clouds
7:54 AM 41.0 °F 35.2 °F 39.0 °F 93% 30.17 in 2.5 mi SSW 9.2 mph - N/A   Scattered Clouds
8:18 AM 39.2 °F 35.0 °F 39.2 °F 100% 30.15 in 3.0 mi South 5.8 mph - N/A   Scattered Clouds
8:54 AM 44.1 °F 39.5 °F 42.1 °F 93% 30.17 in 3.0 mi South 8.1 mph - N/A   Scattered Clouds
9:54 AM 48.9 °F - 44.1 °F 83% 30.16 in 5.0 mi SSW 12.7 mph - N/A   Haze
10:54 AM 54.0 °F - 46.0 °F 75% 30.14 in 8.0 mi SSW 15.0 mph - N/A   Scattered Clouds
11:54 AM 59.0 °F - 45.0 °F 60% 30.11 in 8.0 mi SSW 20.7 mph 29.9 mph N/A   Mostly Cloudy
12:54 PM 59.0 °F - 44.1 °F 58% 30.08 in 9.0 mi SSW 19.6 mph 27.6 mph N/A   Mostly Cloudy
1:54 PM 61.0 °F - 42.1 °F 50% 30.05 in 10.0 mi SSW 19.6 mph 28.8 mph N/A   Mostly Cloudy
2:54 PM 61.0 °F - 41.0 °F 48% 30.02 in 10.0 mi SSW 19.6 mph - N/A   Mostly Cloudy
3:54 PM 60.1 °F - 41.0 °F 49% 30.01 in 10.0 mi South 18.4 mph 21.9 mph N/A   Overcast
4:54 PM 55.9 °F - 42.1 °F 60% 30.01 in 10.0 mi South 11.5 mph - N/A   Overcast
5:54 PM 55.0 °F - 42.1 °F 62% 29.99 in 10.0 mi South 10.4 mph - N/A   Overcast
6:54 PM 55.9 °F - 43.0 °F 62% 29.98 in 10.0 mi South 12.7 mph - N/A   Overcast
7:54 PM 55.9 °F - 42.1 °F 60% 29.96 in 10.0 mi South 12.7 mph - N/A   Overcast
8:54 PM 54.0 °F - 41.0 °F 62% 29.93 in 10.0 mi South 16.1 mph - N/A   Scattered Clouds
9:54 PM 55.0 °F - 39.9 °F 57% 29.92 in 10.0 mi SSW 13.8 mph - N/A   Mostly Cloudy
10:54 PM 55.0 °F - 39.9 °F 57% 29.90 in 10.0 mi SSW 17.3 mph 24.2 mph N/A   Overcast
11:54 PM 55.0 °F - 42.1 °F 62% 29.88 in 10.0 mi SW 24.2 mph 31.1 mph 0.00 in Rain Light Rain